Погода в Могилёве-Подольском

Украина / Винницкая область     48°26′27″N   27°48′07″E
темп.,
°C
ветер,
м/с
пор.,
м/с
влажн.,
%
обл.,
%
осадки,
мм/ч
давл.,
гПа
погр.,
м
2 декабря, чт
чт223:00+1ю497195 0.0 1007486
02:00+2ю5126994 0.0 1005332
05:00+1ю4107541 0.0 1004187
08:00+4ю4127388 0.0 1004259
11:00+8ююз5136048 0.0 1003469
14:00+10юз61153100 0.0 1002786
17:00+7ююз41066100 0.0 1003179
20:00+6ююз377355 0.0 1003116
3 декабря, пт
пт323:00+5ю35745 0.0 100375
02:00+4ююв35718 0.0 100366
05:00+3ююв3479100 0.0 100257
08:00+2ююв358539 0.0 1001102
11:00+7ююз51262100 0.0 1001317
14:00+5сз8973100 0.0 1004612
17:00+2ссз71173100 0.0 1009776
20:00+1сз51079100 0.0 1012661
4 декабря, сб
сб423:000сз4984100 0.0 1015409
02:00−2сз379062 0.0 1016206
05:00−3зсз119157 0.0 101610
08:00−4юз01875 0.0 101710
11:000ююв22580 0.0 1016295
14:00+2ююв3444100 0.0 1014546
17:000вюв3654100 0.0 1013130
20:000юв3957100 0.0 1013216
5 декабря, вс
вс523:000юв4116543 0.0 1012297
02:00−1вюв3979100 0.0 1011181
05:00+1юв51276100 0.0 1009462
08:00+2ююв51187100 0.0 1009581
11:00+4ююв4989100 0.0 1009706
14:00+5ю3580100 0.0 1007513
17:00+4ююв2286100 0.0 100818
20:00+3юв12905 0.0 100911
6 декабря, пн
пн623:00+2вюв11915 0.0 100910
02:00+2в229357 0.0 100914
05:00+2в2295100 0.0 100920
08:00+2вюв3496100 0.0 100965
11:00+5юв1387100 0.0 1009242
14:00+6всв1184100 0.0 1008239
17:00+5зсз2290100 0.1 100843
20:00+5з2489100 0.8 1009170